COSMOS 1275 DEB, 42168

Orbit data source: Space-Track

COSMOS 1275 DEB, 42168 is space debris in LEO originally from a launch on Thu, 04 Jun 1981 UTC launched from the Plesetsk Missile And Space Complex (PKMTR). Debris objects in space refer to the collection of defunct objects orbiting the Earth. Examples of debris include non-operational satellites, rocket bodies, and fragments generated from explosions, collisions, or faulty payload assembly.

Loading next visibility...
COSMOS 1275 DEB details
Identifier
42168, 1981-053SG
Orbit
LEO
Last TLE update3 months ago
Origin
Flag of CISGUKOS (CIS)
ManufacturerUnknown
MissionSpacecraft
Bus & MotorUnknown
MassUnknown
Launch date (UTC)
1981-06-04 (44 years ago)
Launch vehicleUnknown
Launch site
Plesetsk Missile And Space Complex (PKMTR)
Object type
Payload
Rocket body
Debris
Shape & HBRUnknown
Radar Cross SectionSmall (<0.1 m²)

Expand to show TLE details & history

TLE from 3 months ago
0 COSMOS 1275 DEB
1 42168U 81053SG  24244.18236854  .00069334  00000-0  11748-1 0  9998
2 42168  82.7880  45.7953 0008919 236.3536 123.6822 14.68857209567332
Epoch: 2024-08-31T04:22Z
Definitive object data (Epoch: 2024-08-31T04:22:36.641Z)
Latitude-0°
Longitude0.29794°
Altitude671.233 km
Speed7.519 km/s
True Right ascension03h 03m 10s
True Declination0° 00' 00"
Sunlit
Object was in daylight at TLE epoch
Visualization TLE readout
Latitude50.05483°
Longitude85.84001°
Altitude629.169 km
Speed7.545 km/s
Apparent Right ascension14h 48m 07s
Apparent Declination34° 25' 14"
Sunlit
Object is in daylight
Visualization observer readout
Local Sidereal Time07:15:49
Azimuth49.815° ENE
Elevation6.589°
Doppler factor1
Orbital elements
Apogee altitude668.024 km
Perigee altitude655.466 km
Semi-major axis7,039.882 km
Eccentricity0.0008919
Inclination82.788°
RAAN45.7953°
Arg. of periapsis236.3536°
True anomaly123.76719°
Mean anomaly123.6822°
Eccentric anomaly123.7247°
Mean motion3.67447 °/min
BSTAR0.011748
Orbital period97.97 mins
Loading maneuver chart data...
Loading historical data...
Loading historical data...
Loading historical data...
Loading historical data...
Loading historical data...
Loading historical data...
Loading historical data...

COSMOS 1275 DEB Visibility forecast

Observer location: undefined°, undefined

Span
Click to sort rows by Start time (UTC) header in descending order
Start Az.
Max El. time (UTC)
Max El. Az.
Max El.
End time (UTC)
End Az.
8 mins2024-12-05 10:53:37.462Z352.582° N2024-12-05 10:57:37.462Z181.327° SSW44.734°2024-12-05 11:01:37.462Z174.567° S
6 mins2024-12-05 23:24:37.462Z165.869° S2024-12-05 23:26:37.462Z116.413° SE40.599°2024-12-05 23:30:37.462Z16.049° NNE
|